Find Starlink 32533

NORAD ID: 61706 Int'l Des: 2024-195 Owner: SPXS Country: US Constellation: starlink operational
LEOCIRCULAR

Live Position

Loading 3D Globe...

About Starlink 32533

Description loading...

Upcoming Passes

Passes for default location (London). Set your location on the main map for personalized predictions.

Altitude History

Loading altitude history...

Two-Line Element Set

1 61706U 24195V 26122.40395030 -.00000179 00000-0 58514-5 0 9994
2 61706 53.1616 265.2733 0001203 68.9862 291.1269 15.34382398 85411
Epoch: May 2, 2026 • Age: 8 hours

Current Status

Altitude 475.3 km
Velocity 7.63 km/s
Sub-Earth Point -37.59°S, 108.71°E
Launch Date Oct 30, 2024
Age 1.5 years
Type internet

Technical Details

Classification Payload
Mass 730.00 kg
Dry Mass 700.00 kg
Total Mass 730.00 kg
Length 0.30 m
Diameter 4.10 m
Span 29.00 m
Shape Box + pan
Manufacturer SPXS
Bus Type Starlink V2M
Phase Status In Orbit
Owner/State SPXS/US

Most Searched